TimeCST,TemperatureF,Dew PointF,Humidity,Sea Level PressureIn,VisibilityMPH,Wind Direction,Wind SpeedMPH,Gust SpeedMPH,PrecipitationIn,Events,Conditions,WindDirDegrees,DateUTC
12:14 AM,-11.2,-18.4,70,30.07,10.0,NW,8.1,-,N/A,,Clear,310,2013-12-13 06:14:00
12:33 AM,-11.2,-20.2,64,30.07,10.0,NW,9.2,-,N/A,,Scattered Clouds,320,2013-12-13 06:33:00
12:54 AM,-11.2,-20.2,64,30.07,10.0,NW,10.4,17.3,N/A,,Scattered Clouds,320,2013-12-13 06:54:00
1:13 AM,-11.2,-20.2,64,30.08,10.0,NW,11.5,-,N/A,,Scattered Clouds,320,2013-12-13 07:13:00
1:34 AM,-11.2,-20.2,64,30.07,10.0,NW,11.5,-,N/A,,Scattered Clouds,320,2013-12-13 07:34:00
1:53 AM,-11.2,-20.2,64,30.07,10.0,NNW,16.1,20.7,N/A,,Scattered Clouds,330,2013-12-13 07:53:00
2:14 AM,-13.0,-20.2,70,30.08,10.0,NW,17.3,23.0,N/A,,Scattered Clouds,320,2013-12-13 08:14:00
2:33 AM,-13.0,-20.2,70,30.08,10.0,NNW,17.3,23.0,N/A,,Scattered Clouds,330,2013-12-13 08:33:00
2:54 AM,-13.0,-20.2,70,30.08,7.0,NW,17.3,26.5,N/A,,Scattered Clouds,320,2013-12-13 08:54:00
3:14 AM,-14.8,-22.0,70,30.08,7.0,NNW,19.6,26.5,N/A,,Clear,330,2013-12-13 09:14:00
3:33 AM,-14.8,-22.0,70,30.08,10.0,NNW,15.0,25.3,N/A,,Clear,330,2013-12-13 09:33:00
3:54 AM,-14.8,-22.0,70,30.08,10.0,NNW,13.8,25.3,N/A,,Clear,330,2013-12-13 09:54:00
4:14 AM,-14.8,-23.8,64,30.08,10.0,NW,11.5,19.6,N/A,,Clear,320,2013-12-13 10:14:00
4:33 AM,-14.8,-23.8,64,30.10,10.0,NW,9.2,19.6,N/A,,Clear,310,2013-12-13 10:33:00
4:54 AM,-14.8,-23.8,64,30.11,10.0,NW,5.8,-,N/A,,Clear,310,2013-12-13 10:54:00
5:14 AM,-14.8,-23.8,64,30.11,10.0,NW,5.8,-,N/A,,Clear,320,2013-12-13 11:14:00
5:34 AM,-14.8,-23.8,64,30.12,10.0,NW,6.9,-,N/A,,Clear,320,2013-12-13 11:34:00
5:53 AM,-14.8,-23.8,64,30.12,10.0,NNW,4.6,-,N/A,,Clear,330,2013-12-13 11:53:00
6:13 AM,-14.8,-23.8,64,30.13,10.0,NW,5.8,-,N/A,,Clear,320,2013-12-13 12:13:00
6:33 AM,-14.8,-23.8,64,30.15,10.0,NW,5.8,-,N/A,,Scattered Clouds,310,2013-12-13 12:33:00
6:53 AM,-14.8,-23.8,64,30.15,10.0,NW,4.6,-,N/A,,Scattered Clouds,320,2013-12-13 12:53:00
7:13 AM,-16.6,-23.8,70,30.16,10.0,NW,6.9,-,N/A,,Scattered Clouds,320,2013-12-13 13:13:00
7:34 AM,-16.6,-25.6,64,30.17,10.0,NNW,5.8,-,N/A,,Scattered Clouds,340,2013-12-13 13:34:00
7:53 AM,-18.4,-25.6,70,30.17,10.0,NNW,11.5,-,N/A,,Scattered Clouds,330,2013-12-13 13:53:00
8:14 AM,-16.6,-25.6,64,30.17,10.0,NNW,12.7,18.4,N/A,,Clear,340,2013-12-13 14:14:00
8:34 AM,-16.6,-25.6,64,30.17,10.0,NNW,12.7,18.4,N/A,,Clear,340,2013-12-13 14:34:00
8:54 AM,-16.6,-25.6,64,30.17,10.0,NNW,15.0,21.9,N/A,,Clear,340,2013-12-13 14:54:00
9:13 AM,-16.6,-25.6,64,30.19,10.0,NNW,12.7,17.3,N/A,,Clear,340,2013-12-13 15:13:00
9:34 AM,-14.8,-25.6,58,30.19,10.0,NNW,13.8,18.4,N/A,,Clear,340,2013-12-13 15:34:00
9:53 AM,-14.8,-25.6,58,30.20,10.0,NNW,10.4,19.6,N/A,,Clear,340,2013-12-13 15:53:00
10:13 AM,-13.0,-23.8,59,30.20,10.0,North,10.4,16.1,N/A,,Clear,350,2013-12-13 16:13:00
10:34 AM,-11.2,-23.8,54,30.20,10.0,NNW,11.5,20.7,N/A,,Clear,340,2013-12-13 16:34:00
10:53 AM,-9.4,-23.8,49,30.21,10.0,NNW,10.4,-,N/A,,Clear,340,2013-12-13 16:53:00
11:14 AM,-11.2,-23.8,54,30.21,10.0,NNW,9.2,-,N/A,,Clear,330,2013-12-13 17:14:00
11:34 AM,-11.2,-23.8,54,30.21,10.0,North,8.1,-,N/A,,Clear,350,2013-12-13 17:34:00
11:53 AM,-9.4,-23.8,49,30.21,10.0,NNW,5.8,-,N/A,,Clear,330,2013-12-13 17:53:00
12:14 PM,-7.6,-23.8,45,30.21,10.0,NNW,6.9,-,N/A,,Clear,330,2013-12-13 18:14:00
12:34 PM,-7.6,-22.0,50,30.20,10.0,NNW,9.2,-,N/A,,Clear,330,2013-12-13 18:34:00
12:53 PM,-7.6,-20.2,54,30.21,10.0,NW,6.9,-,N/A,,Clear,320,2013-12-13 18:53:00
1:14 PM,-7.6,-22.0,50,30.21,10.0,NNW,5.8,-,N/A,,Clear,340,2013-12-13 19:14:00
1:33 PM,-9.4,-22.0,54,30.21,10.0,NNW,5.8,-,N/A,,Clear,340,2013-12-13 19:33:00
1:53 PM,-7.6,-20.2,54,30.21,10.0,NNW,8.1,-,N/A,,Clear,340,2013-12-13 19:53:00
2:14 PM,-5.8,-20.2,50,30.21,10.0,NNW,6.9,-,N/A,,Clear,340,2013-12-13 20:14:00
2:34 PM,-5.8,-20.2,50,30.21,10.0,NNW,8.1,-,N/A,,Clear,330,2013-12-13 20:34:00
2:51 PM,-7.6,-20.2,54,30.23,10.0,NW,4.6,-,N/A,,Clear,310,2013-12-13 20:51:00
3:13 PM,-7.6,-20.2,54,30.23,10.0,NNW,5.8,-,N/A,,Clear,340,2013-12-13 21:13:00
3:34 PM,-9.4,-20.2,59,30.23,10.0,North,8.1,-,N/A,,Clear,350,2013-12-13 21:34:00
3:54 PM,-9.4,-20.2,59,30.24,10.0,North,6.9,-,N/A,,Clear,350,2013-12-13 21:54:00
4:13 PM,-9.4,-20.2,59,30.24,10.0,NNW,9.2,-,N/A,,Clear,340,2013-12-13 22:13:00
4:33 PM,-11.2,-20.2,64,30.25,10.0,NNW,6.9,-,N/A,,Clear,340,2013-12-13 22:33:00
4:54 PM,-11.2,-22.0,59,30.26,10.0,NNW,5.8,-,N/A,,Scattered Clouds,340,2013-12-13 22:54:00
5:13 PM,-11.2,-22.0,59,30.26,10.0,NNW,8.1,-,N/A,,Scattered Clouds,330,2013-12-13 23:13:00
5:34 PM,-11.2,-22.0,59,30.26,10.0,NNW,9.2,-,N/A,,Scattered Clouds,340,2013-12-13 23:34:00
5:53 PM,-11.2,-22.0,59,30.27,10.0,NNW,8.1,-,N/A,,Scattered Clouds,330,2013-12-13 23:53:00
6:13 PM,-11.2,-22.0,59,30.27,10.0,North,8.1,-,N/A,,Scattered Clouds,350,2013-12-14 00:13:00
6:34 PM,-13.0,-22.0,64,30.27,10.0,North,9.2,-,N/A,,Scattered Clouds,350,2013-12-14 00:34:00
6:53 PM,-13.0,-22.0,64,30.27,10.0,North,8.1,-,N/A,,Scattered Clouds,360,2013-12-14 00:53:00
7:14 PM,-11.2,-22.0,59,30.27,10.0,North,9.2,-,N/A,,Clear,360,2013-12-14 01:14:00
7:34 PM,-13.0,-23.8,59,30.27,10.0,North,9.2,-,N/A,,Clear,350,2013-12-14 01:34:00
7:53 PM,-13.0,-23.8,59,30.28,10.0,NNW,10.4,-,N/A,,Clear,340,2013-12-14 01:53:00
8:14 PM,-13.0,-23.8,59,30.29,10.0,North,9.2,-,N/A,,Clear,350,2013-12-14 02:14:00
8:33 PM,-13.0,-23.8,59,30.28,10.0,North,8.1,-,N/A,,Clear,350,2013-12-14 02:33:00
8:54 PM,-13.0,-23.8,59,30.29,10.0,North,9.2,-,N/A,,Scattered Clouds,350,2013-12-14 02:54:00
9:14 PM,-13.0,-23.8,59,30.29,10.0,NNW,6.9,-,N/A,,Clear,340,2013-12-14 03:14:00
9:33 PM,-13.0,-23.8,59,30.29,10.0,NNW,5.8,-,N/A,,Scattered Clouds,340,2013-12-14 03:33:00
9:53 PM,-14.8,-23.8,64,30.29,10.0,NNW,3.5,-,N/A,,Scattered Clouds,340,2013-12-14 03:53:00
10:14 PM,-14.8,-23.8,64,30.29,10.0,NNW,6.9,-,N/A,,Clear,340,2013-12-14 04:14:00
10:33 PM,-14.8,-23.8,64,30.29,10.0,North,5.8,-,N/A,,Clear,350,2013-12-14 04:33:00
10:53 PM,-14.8,-23.8,64,30.29,10.0,NNW,6.9,-,N/A,,Scattered Clouds,340,2013-12-14 04:53:00
11:14 PM,-14.8,-23.8,64,30.29,10.0,North,8.1,-,N/A,,Scattered Clouds,360,2013-12-14 05:14:00
11:34 PM,-14.8,-23.8,64,30.29,10.0,North,5.8,-,N/A,,Scattered Clouds,350,2013-12-14 05:34:00
11:54 PM,-14.8,-23.8,64,30.29,10.0,NNW,5.8,-,N/A,,Clear,340,2013-12-14 05:54:00